Showing default

BRO-5, 51061

Orbit data source: Space-Track

BRO-5, 51061 is a payload satellite owned by Unseen Labs (FR) in SSO that was launched on Thu, 13 Jan 2022 UTC via an FALCON 9 launch vehicle from the Air Force Eastern Test Range (AFETR). Payload-class satellites include a variety of spacecraft equipped with specific instruments for various scientific and technological missions. These include communications satellites like Starlink; space stations such as the ISS; scientific satellites like the Hubble; Earth observation satellites from companies like Planet Labs, Umbra, and HawkEye 360; GPS; miniature CubeSats for education and research; and military/defense satellites.

Loading next visibility...
Identifier
51061, 2022-002CF
Orbit
SSO
Country
Flag of FRFR
Related business
Manufacturer
GOMSpace
Mission
Operational Commercial Sigint
Bus & Motor
CUBESAT 6U, Unknown motor
Mass
10 kg wet, ~10 kg dry
Launch date (UTC)
2022-01-13 (4 years ago)
Launch vehicle
FALCON 9
Launch site
Air Force Eastern Test Range (AFETR)
Object type
Payload
Rocket body
Debris
Shape & HBR
Box, 0.1 m
Radar Cross Section
0.080 m², Medium (>0.1 m² and < 1m²)

Expand to show TLE details & history
Last TLE update: 7 hours ago

TLE from 7 hours ago
0 BRO-5
1 51061U 22002CF  26072.92663039  .00014408  00000-0  32296-3 0  9996
2 51061  97.3084 146.0263 0003825 328.5962  31.5058 15.43520181231548
Epoch: 2026-03-13T22:14Z
TLE epoch observation values (Epoch: 2026-03-13T22:14:20.865Z)
Latitude
0.00004°
Longitude
0.8842°
Altitude
436.632 km
Speed
7.651 km/s
True Right ascension
09h 44m 06s
True Declination
0° 00' 00"
Sunlit
Object was in full shadow at epoch
Visualization orbit readout
Latitude
Unknown
Longitude
Unknown
Altitude
Unknown
Speed
Unknown
Apparent Right ascension
Unknown
Apparent Declination
Unknown
Sunlit
N/A
Visualization observer readout
Local Sidereal Time
09:23:06
Azimuth
Unknown
Elevation
Unknown
Doppler factor
Unknown
Orbital elements
Apogee altitude
435.265 km
Perigee altitude
430.055 km
Semi-major axis
6,810.797 km
Eccentricity
0.00038
Inclination
97.3084°
RAAN
146.0263°
Arg. of periapsis
328.5962°
True anomaly
31.52871°
Mean anomaly
31.5058°
Eccentric anomaly
31.51726°
Mean motion
3.86141 °/min
Orbital period
93.23 mins
BSTAR
0.00032296
Loading maneuver chart data...
Computing Atmospheric mass density...

Documentation

Showing up to 5 results
|